Location: Namasale
(1.5000°N, 32.6167°E)
Time: 20:15:49
(UTC+00:00)

Courier 1B - Pass Details

Date: 26 April 2021
Orbit: 962 x 1209 km, 28.3° (Epoch: 09 May)

Event Time Altitude Azimuth Distance (km) Brightness Sun altitude
Rises 15:56:41 0° 295° (WNW) 3,630 12.7 -1.9°
Reaches altitude 10° 15:59:18 10° 293° (WNW) 2,692 11.8 -2.6°
Maximum altitude 16:05:45 69° 211° (SSW) 1,048 7.8 -4.1°
Drops below altitude 10° 16:12:31 10° 128° (SE) 2,811 9.3 -5.8°
Enters shadow 16:14:02 - 126° (SE) 3,346 9.7 -6.1°
Sets 16:15:18 0° 125° (SE) 3,801 - -6.4°
